Location: Eaton Estates
(41.3089°N, 82.0057°W)
Time: 19:28:20
(UTC+00:00)

O/OREOS (USA 219) - Pass Details

Date: 23 March 2023
Orbit: 621 x 646 km, 72.0° (Epoch: 22 May)

Event Time Altitude Azimuth Distance (km) Brightness Sun altitude
Rises 10:20:17 0° 150° (SSE) 2,943 ? -13.2°
Reaches altitude 10° 10:24:02 10° 118° (ESE) 2,038 ? -12.5°
Maximum altitude 10:25:39 12° 97° (E) 1,924 ? -12.2°
Drops below altitude 10° 10:27:16 10° 77° (ENE) 2,041 ? -11.9°
Sets 10:31:00 0° 45° (NE) 2,952 ? -11.2°
